Home   Weather   Aurora   Past weeks

Flag for USA Past Weather in Aurora, Colorado, USA — Yesterday and Last 2 Weeks

Now
29 °F

Light snow. Ice fog.


Feels Like: 20 °F
Forecast: 26 / 32 °F
Wind: 10 mph from North

Location: Buckley Air Force Base

Current Time: Apr 29, 2017 at 11:24:26 am

Latest Report: Apr 29, 2017 at 10:58 am


Visibility: 1 mi

Pressure: 30.24 "Hg (24.58 "Hg at 1647m altitude)

Humidity: 98%

Dew Point: 28 °F

Location of AuroraLocation

Past Weather in Aurora — Graph

°F

Aurora Temperature Yesterday

Maximum temperature yesterday: 52 °F (at 1:58 pm)
Minimum temperature yesterday: 28 °F (at 11:58 pm)
Average temperature yesterday: 38 °F

High & Low Weather Summary for the Past Weeks

 TemperatureHumidityPressure
High78 °F (Apr 14, 3:58 pm)100% (Apr 19, 8:03 am)30.32 "Hg (Apr 19, 8:03 am)
Low27 °F (Apr 26, 5:58 am)9% (Apr 14, 12:58 pm)29.39 "Hg (Apr 24, 5:58 pm)
Average49 °F57%29.80 "Hg
* Reported Apr 14 10:58 am — Apr 29 10:27 am, Aurora, Weather by CustomWeather, © 2017

Note: Actual official high and low records may vary slightly from our data, if they occured in-between our weather recording intervals... More about our weather records

Advertising

Aurora Weather History for the Previous 24 Hours

Scroll right to see more
 ConditionsComfort  
Time TempWeatherWind HumidityBarometerVisibility
10:27 am
Sat, Apr 29
28 °FLight snow. Ice fog.15 mph100%30.23 "Hg1 mi
9:58 am28 °FLight snow. Ice fog.13 mph99%30.22 "Hg1 mi
8:58 am28 °FLight snow. Ice fog.10 mph98%30.19 "Hg2 mi
7:58 am28 °FLight snow. Ice fog.10 mph99%30.20 "Hg1 mi
6:58 am28 °FLight snow. Ice fog.10 mph100%30.20 "Hg1 mi
6:44 am28 °FLight snow. Ice fog.10 mph100%30.20 "Hg2 mi
5:58 am28 °FLight snow. Low clouds.14 mph99%30.15 "Hg7 mi
4:58 am28 °FLight snow. Low clouds.13 mph100%30.09 "Hg7 mi
3:58 am28 °FLight snow. Low clouds.9 mph99%30.09 "Hg7 mi
2:58 am28 °FLight snow. Low clouds.14 mph99%30.03 "Hg7 mi
1:58 am28 °FLight snow. Ice fog.9 mph99%30.03 "Hg5 mi
12:58 am28 °FLight snow. Ice fog.14 mph99%30.06 "Hg3 mi
11:58 pm
Fri, Apr 28
28 °FLight snow. Ice fog.16 mph99%30.03 "Hg2 mi
10:58 pm29 °FLight snow. Ice fog.13 mph99%30.05 "Hg2 mi
9:58 pm30 °FLight snow. Ice fog.18 mph99%30.02 "Hg2 mi
8:58 pm30 °FLight snow. Ice fog.22 mph99%29.97 "Hg2 mi
7:58 pm32 °FLight snow. Ice fog.20 mph99%29.93 "Hg2 mi
6:58 pm32 °FLight snow. Fog.15 mph99%29.91 "Hg1 mi
5:58 pm33 °FSnow. Fog.14 mph99%29.87 "Hg1 mi
5:30 pm36 °FLight snow. Fog.15 mph93%29.84 "Hg1 mi
4:58 pm36 °FThundershowers. More clouds than sun.22 mph88%29.82 "Hg10 mi
4:16 pm37 °FThundershowers. Mostly cloudy.23 mph81%29.77 "Hg10 mi
3:58 pm41 °FMostly cloudy.28 mph71%29.72 "Hg10 mi
2:58 pm51 °FBroken clouds.10 mph30%29.64 "Hg10 mi
1:58 pm52 °FBroken clouds.17 mph29%29.61 "Hg10 mi
12:58 pm51 °FPartly sunny.8 mph26%29.58 "Hg10 mi
11:58 am51 °FPartly sunny.13 mph25%29.58 "Hg10 mi
Weather by CustomWeather, © 2017

See weather overviewHow to use our weather pages